When you browse on this site, cookies collect data to enhance your experience and personalize the content and advertising you see.
Visit our Privacy Policy to learn more. By continuing to use the site, you agree to this use of cookies and data.
  • In Hungary
  • List of Countries
  • For 7 days
  • Water Temperature
  • Weather Map
  • News
  • Weather Widgets
  • user-avatar
    Login

    Hourly Weather Dybowko

    Today, 3 April, Friday

    Time Temperature Precipitation Wind Pressure Humidity
    00:00 +1°C° 0 mm 5 mps 738 mmHg 77%
    01:00 0°C° 0 mm 5 mps 737 mmHg 76%
    02:00 -1°C° 0 mm 6 mps 737 mmHg 76%
    03:00 +1°C° 0 mm 6 mps 736 mmHg 75%
    04:00 0°C° 0 mm 7 mps 736 mmHg 74%
    05:00 0°C° 0.1 mm 7 mps 736 mmHg 79%
    06:00 0°C° 0.1 mm 7 mps 737 mmHg 83%
    07:00 0°C° 0.1 mm 7 mps 737 mmHg 87%
    08:00 +2°C° 0 mm 7 mps 737 mmHg 77%
    09:00 +3°C° 0 mm 7 mps 738 mmHg 67%
    10:00 +4°C° 0 mm 7 mps 738 mmHg 57%
    11:00 +5°C° 0.2 mm 8 mps 739 mmHg 55%
    12:00 +5°C° 0.2 mm 8 mps 739 mmHg 53%
    13:00 +6°C° 0.2 mm 8 mps 740 mmHg 51%
    14:00 +5°C° 0.3 mm 8 mps 741 mmHg 51%
    15:00 +5°C° 0.3 mm 8 mps 741 mmHg 52%
    16:00 +5°C° 0.3 mm 7 mps 741 mmHg 53%
    17:00 +4°C° 0.1 mm 6 mps 742 mmHg 58%
    18:00 +3°C° 0.1 mm 5 mps 742 mmHg 63%
    19:00 +1°C° 0.1 mm 4 mps 743 mmHg 68%
    20:00 +1°C° 0 mm 4 mps 743 mmHg 68%
    21:00 0°C° 0 mm 4 mps 744 mmHg 68%
    22:00 0°C° 0 mm 5 mps 744 mmHg 68%
    23:00 0°C° 0 mm 5 mps 745 mmHg 70%

    Tomorrow, 4 April, Saturday

    Time Temperature Precipitation Wind Pressure Humidity
    00:00 -1°C° 0 mm 5 mps 746 mmHg 71%
    01:00 -1°C° 0 mm 5 mps 746 mmHg 73%
    02:00 -1°C° 0 mm 4 mps 747 mmHg 75%
    03:00 -2°C° 0 mm 4 mps 747 mmHg 78%
    04:00 -2°C° 0 mm 4 mps 748 mmHg 80%
    05:00 -1°C° 0 mm 4 mps 748 mmHg 77%
    06:00 0°C° 0 mm 4 mps 749 mmHg 74%
    07:00 0°C° 0 mm 4 mps 750 mmHg 70%
    08:00 +2°C° 0 mm 5 mps 750 mmHg 64%
    09:00 +3°C° 0 mm 5 mps 751 mmHg 58%
    10:00 +5°C° 0 mm 5 mps 751 mmHg 51%
    11:00 +6°C° 0 mm 5 mps 752 mmHg 47%
    12:00 +5°C° 0 mm 6 mps 752 mmHg 43%
    13:00 +7°C° 0 mm 6 mps 753 mmHg 39%
    14:00 +7°C° 0 mm 6 mps 753 mmHg 41%
    15:00 +5°C° 0 mm 6 mps 753 mmHg 42%
    16:00 +5°C° 0 mm 6 mps 753 mmHg 44%
    17:00 +3°C° 0 mm 5 mps 754 mmHg 50%
    18:00 +3°C° 0 mm 4 mps 755 mmHg 57%
    19:00 +1°C° 0 mm 3 mps 755 mmHg 63%
    20:00 +1°C° 0 mm 3 mps 756 mmHg 68%
    21:00 +1°C° 0 mm 2 mps 757 mmHg 72%
    22:00 -1°C° 0 mm 2 mps 757 mmHg 77%
    23:00 -1°C° 0 mm 2 mps 758 mmHg 78%

    Day after tomorrow, 5 April, Sunday

    Time Temperature Precipitation Wind Pressure Humidity
    00:00 -1°C° 0 mm 2 mps 759 mmHg 79%
    01:00 -1°C° 0 mm 2 mps 759 mmHg 80%
    02:00 -1°C° 0 mm 2 mps 760 mmHg 80%
    03:00 -1°C° 0 mm 2 mps 760 mmHg 79%
    04:00 -2°C° 0 mm 2 mps 760 mmHg 79%
    05:00 +1°C° 0 mm 2 mps 761 mmHg 75%
    06:00 +2°C° 0 mm 2 mps 762 mmHg 71%
    07:00 +3°C° 0 mm 2 mps 762 mmHg 67%
    08:00 +4°C° 0 mm 2 mps 762 mmHg 60%
    09:00 +6°C° 0 mm 2 mps 763 mmHg 52%
    10:00 +9°C° 0 mm 1 mps 763 mmHg 44%
    11:00 +9°C° 0 mm 1 mps 763 mmHg 42%
    12:00 +10°C° 0 mm 1 mps 763 mmHg 39%
    13:00 +10°C° 0 mm 0 mps 763 mmHg 36%
    14:00 +11°C° 0 mm 1 mps 763 mmHg 36%
    15:00 +11°C° 0 mm 1 mps 763 mmHg 36%
    16:00 +11°C° 0 mm 1 mps 762 mmHg 36%
    17:00 +9°C° 0 mm 1 mps 763 mmHg 41%
    18:00 +8°C° 0 mm 1 mps 763 mmHg 46%
    19:00 +6°C° 0 mm 1 mps 763 mmHg 51%
    20:00 +5°C° 0 mm 2 mps 763 mmHg 53%
    21:00 +4°C° 0 mm 2 mps 763 mmHg 55%
    22:00 +4°C° 0 mm 2 mps 763 mmHg 57%
    23:00 +3°C° 0 mm 2 mps 763 mmHg 59%

    6 April, Monday

    Time Temperature Precipitation Wind Pressure Humidity
    00:00 +3°C° 0 mm 2 mps 763 mmHg 61%
    01:00 +2°C° 0 mm 2 mps 763 mmHg 62%
    02:00 +1°C° 0 mm 3 mps 763 mmHg 64%
    03:00 +1°C° 0 mm 3 mps 763 mmHg 65%
    04:00 0°C° 0 mm 3 mps 763 mmHg 66%
    05:00 0°C° 0 mm 4 mps 763 mmHg 61%
    06:00 +1°C° 0 mm 4 mps 763 mmHg 57%
    07:00 +2°C° 0 mm 5 mps 763 mmHg 52%
    08:00 +5°C° 0 mm 5 mps 763 mmHg 48%
    09:00 +5°C° 0 mm 6 mps 763 mmHg 44%
    10:00 +8°C° 0 mm 6 mps 763 mmHg 40%
    11:00 +9°C° 0 mm 6 mps 762 mmHg 40%
    12:00 +10°C° 0 mm 6 mps 762 mmHg 39%
    13:00 +11°C° 0 mm 6 mps 762 mmHg 39%
    14:00 +13°C° 0 mm 6 mps 761 mmHg 41%
    15:00 +13°C° 0 mm 6 mps 761 mmHg 42%
    16:00 +13°C° 0 mm 6 mps 760 mmHg 44%
    17:00 +10°C° 0 mm 5 mps 760 mmHg 50%
    18:00 +10°C° 0 mm 4 mps 760 mmHg 56%
    19:00 +7°C° 0 mm 4 mps 760 mmHg 61%
    20:00 +6°C° 0 mm 4 mps 760 mmHg 62%
    21:00 +6°C° 0 mm 4 mps 760 mmHg 63%
    22:00 +6°C° 0 mm 4 mps 760 mmHg 64%
    23:00 +5°C° 0 mm 4 mps 760 mmHg 63%

    7 April, Tuesday

    Time Temperature Precipitation Wind Pressure Humidity
    00:00 +5°C° 0 mm 4 mps 760 mmHg 63%
    01:00 +4°C° 0 mm 4 mps 760 mmHg 63%
    02:00 +4°C° 0 mm 4 mps 760 mmHg 65%
    03:00 +3°C° 0 mm 3 mps 760 mmHg 68%
    04:00 +3°C° 0 mm 3 mps 760 mmHg 70%
    05:00 +4°C° 0 mm 4 mps 760 mmHg 69%
    06:00 +5°C° 0 mm 4 mps 760 mmHg 67%
    07:00 +6°C° 0 mm 5 mps 760 mmHg 66%
    08:00 +8°C° 0 mm 5 mps 760 mmHg 60%
    09:00 +10°C° 0 mm 5 mps 760 mmHg 54%
    10:00 +13°C° 0 mm 6 mps 760 mmHg 48%
    11:00 +14°C° 0 mm 6 mps 760 mmHg 48%
    12:00 +15°C° 0 mm 5 mps 760 mmHg 48%
    13:00 +17°C° 0 mm 5 mps 760 mmHg 47%
    14:00 +16°C° 0 mm 5 mps 760 mmHg 52%
    15:00 +16°C° 0 mm 5 mps 760 mmHg 57%
    16:00 +15°C° 0 mm 5 mps 760 mmHg 62%
    17:00 +13°C° 0 mm 5 mps 760 mmHg 66%
    18:00 +11°C° 0 mm 4 mps 761 mmHg 70%
    19:00 +8°C° 0 mm 4 mps 761 mmHg 74%
    20:00 +7°C° 0 mm 4 mps 761 mmHg 78%
    21:00 +7°C° 0 mm 3 mps 762 mmHg 82%
    22:00 +5°C° 0 mm 3 mps 762 mmHg 86%
    23:00 +4°C° 0 mm 3 mps 762 mmHg 86%

    8 April, Wednesday

    Time Temperature Precipitation Wind Pressure Humidity
    00:00 +5°C° 0 mm 2 mps 762 mmHg 87%
    01:00 +4°C° 0 mm 2 mps 762 mmHg 87%
    02:00 +4°C° 0 mm 2 mps 763 mmHg 87%
    03:00 +4°C° 0 mm 2 mps 763 mmHg 87%
    04:00 +4°C° 0 mm 2 mps 763 mmHg 86%
    05:00 +5°C° 0 mm 2 mps 763 mmHg 81%
    06:00 +6°C° 0 mm 2 mps 763 mmHg 76%
    07:00 +8°C° 0 mm 1 mps 763 mmHg 72%
    08:00 +9°C° 0 mm 2 mps 763 mmHg 64%
    09:00 +12°C° 0 mm 2 mps 763 mmHg 56%
    10:00 +14°C° 0 mm 2 mps 763 mmHg 48%
    11:00 +15°C° 0 mm 2 mps 762 mmHg 45%
    12:00 +16°C° 0 mm 3 mps 762 mmHg 42%
    13:00 +17°C° 0 mm 3 mps 762 mmHg 40%
    14:00 +16°C° 0 mm 3 mps 761 mmHg 41%
    15:00 +16°C° 0 mm 3 mps 761 mmHg 43%
    16:00 +16°C° 0 mm 3 mps 760 mmHg 44%
    17:00 +13°C° 0 mm 3 mps 760 mmHg 51%
    18:00 +12°C° 0 mm 2 mps 760 mmHg 59%
    19:00 +10°C° 0 mm 2 mps 760 mmHg 66%
    20:00 +9°C° 0 mm 2 mps 760 mmHg 68%
    21:00 +8°C° 0 mm 2 mps 760 mmHg 71%
    22:00 +8°C° 0 mm 1 mps 759 mmHg 73%
    23:00 +7°C° 0 mm 2 mps 759 mmHg 74%
    Show more